TimeMST,TemperatureF,Dew PointF,Humidity,Sea Level PressureIn,VisibilityMPH,Wind Direction,Wind SpeedMPH,Gust SpeedMPH,PrecipitationIn,Events,Conditions,WindDirDegrees,DateUTC
12:53 AM,5.0,1.9,87,30.09,9.0,Calm,Calm,-,N/A,,Clear,0,2013-01-06 07:53:00
1:09 AM,5.0,1.4,85,29.95,7.0,Calm,Calm,-,N/A,,Partly Cloudy,0,2013-01-06 08:09:00
1:53 AM,6.1,1.9,83,30.05,10.0,East,3.5,-,N/A,,Clear,100,2013-01-06 08:53:00
2:53 AM,10.4,6.8,85,29.90,10.0,Calm,Calm,-,N/A,,Clear,0,2013-01-06 09:53:00
3:53 AM,9.0,5.0,84,30.01,10.0,East,3.5,-,N/A,,Clear,90,2013-01-06 10:53:00
4:53 AM,10.4,6.8,85,29.86,10.0,NE,3.5,-,N/A,,Clear,50,2013-01-06 11:53:00
5:53 AM,10.9,6.1,81,29.96,10.0,North,3.5,-,N/A,,Clear,10,2013-01-06 12:53:00
6:53 AM,21.9,15.1,75,29.91,10.0,SW,10.4,-,N/A,,Clear,230,2013-01-06 13:53:00
7:53 AM,28.0,19.0,69,29.91,10.0,WSW,16.1,26.5,N/A,,Clear,250,2013-01-06 14:53:00
8:53 AM,28.9,19.0,67,29.90,10.0,WSW,16.1,-,N/A,,Clear,240,2013-01-06 15:53:00
9:53 AM,33.1,21.9,64,29.91,9.0,SW,25.3,-,0.00,Snow,Light Snow,230,2013-01-06 16:53:00
10:53 AM,35.1,24.1,64,29.91,10.0,SW,26.5,36.8,0.00,Snow,Light Snow,230,2013-01-06 17:53:00
11:53 AM,36.0,27.0,70,29.89,10.0,WSW,17.3,-,0.00,,Clear,240,2013-01-06 18:53:00
12:53 PM,39.9,25.0,55,29.86,10.0,WSW,24.2,33.4,N/A,,Clear,250,2013-01-06 19:53:00
1:53 PM,41.0,25.0,53,29.83,10.0,West,33.4,44.9,N/A,,Clear,260,2013-01-06 20:53:00
2:53 PM,39.9,24.1,53,29.84,10.0,West,28.8,39.1,0.01,,Clear,270,2013-01-06 21:53:00
3:53 PM,37.9,25.0,60,29.84,10.0,WSW,28.8,33.4,0.00,Snow,Light Snow,250,2013-01-06 22:53:00
4:53 PM,37.0,24.1,59,29.86,9.0,WSW,26.5,36.8,0.00,Snow,Light Snow,250,2013-01-06 23:53:00
5:53 PM,36.0,24.1,62,29.88,10.0,WSW,26.5,-,0.00,,Clear,250,2013-01-07 00:53:00
6:53 PM,34.0,23.0,64,29.89,10.0,West,18.4,-,0.00,,Clear,260,2013-01-07 01:53:00
7:53 PM,30.9,21.9,69,29.89,10.0,WSW,16.1,-,N/A,,Clear,240,2013-01-07 02:53:00
8:53 PM,28.0,19.9,72,29.89,10.0,WSW,17.3,-,N/A,,Clear,250,2013-01-07 03:53:00
9:53 PM,28.0,19.0,69,29.88,10.0,WSW,19.6,-,N/A,,Clear,240,2013-01-07 04:53:00
10:53 PM,25.0,17.1,72,29.90,10.0,SW,5.8,-,N/A,,Partly Cloudy,220,2013-01-07 05:53:00
11:53 PM,26.1,17.1,69,29.90,10.0,Calm,Calm,-,N/A,,Clear,0,2013-01-07 06:53:00